Home > Weather > Waterloo > Past weeks

Flag for Canada Past Weather in Waterloo, Ontario, Canada — Yesterday and Last 2 Weeks

Now
75 °F

Sunny.


Feels Like: 77 °F
Forecast: 51 / 74 °F
Wind: 7 mph from Northwest

Location: Waterloo Well

Current Time: Jun 29, 2016 at 4:09:10 PM

Latest Report: Jun 29, 2016 at 3:00 PM


Visibility: 9 mi

Pressure: 30.01 "Hg

Humidity: 34%

Dew Point: 45 °F

Location of WaterlooLocation

Past Weather in Waterloo — Graph

°F

Waterloo Temperature Yesterday

Maximum temperature yesterday: 68 °F (at 1:00 PM)
Minimum temperature yesterday: 55 °F (at 5:00 AM)
Average temperature yesterday: 62 °F

High & Low Weather Summary for the Past Weeks

 TemperatureHumidityPressure
High90 °F (Jun 20, 4:00 PM)100% (Jun 19, 6:00 AM)30.29 "Hg (Jun 19, 6:00 AM)
Low46 °F (Jun 15, 5:00 AM)23% (Jun 18, 2:00 PM)29.72 "Hg (Jun 16, 1:00 PM)
Average68 °F60%29.99 "Hg
* Reported Jun 14 2:00 PM — Jun 29 2:00 PM, Waterloo, Weather by CustomWeather, © 2016

Note: Actual official high and low records may vary slightly from our data, if they occured in-between our weather recording intervals... More about our weather records

Advertising

Waterloo Weather History for the Previous 24 Hours

Scroll right to see more
 ConditionsComfort  
Time TempWeatherWind HumidityBarometerVisibility
2:00 PM
Wed, Jun 29
75 °FScattered clouds.9 mph39%30.01 "Hg9 mi
1:00 PM73 °FScattered clouds.8 mph38%30.02 "Hg9 mi
12:00 PM73 °FScattered clouds.14 mph38%30.02 "Hg9 mi
11:00 AM72 °FSunny.14 mph44%30.02 "Hg9 mi
10:00 AM68 °FSunny.12 mph56%30.01 "Hg9 mi
9:00 AM61 °FPartly sunny.9 mph68%30.04 "Hg9 mi
8:00 AM59 °FOvercast.9 mph72%30.03 "Hg9 mi
7:00 AM54 °FSunny.7 mph82%30.01 "Hg9 mi
6:00 AM48 °FClear.5 mph87%30.00 "Hg9 mi
5:00 AM50 °FPassing clouds.2 mph88%30.00 "Hg9 mi
4:00 AM50 °FPassing clouds.7 mph88%30.01 "Hg9 mi
3:00 AM50 °FClear.8 mph82%30.01 "Hg9 mi
2:00 AM52 °FPassing clouds.9 mph82%30.01 "Hg9 mi
1:00 AM54 °FClear.10 mph82%30.01 "Hg9 mi
12:00 AM54 °FOvercast.9 mph82%30.01 "Hg9 mi
11:00 PM
Tue, Jun 28
55 °FPassing clouds.8 mph77%30.02 "Hg9 mi
10:00 PM57 °FSunny.9 mph77%30.01 "Hg9 mi
9:00 PM59 °FScattered clouds.8 mph72%30.01 "Hg9 mi
8:00 PM63 °FMore clouds than sun.14 mph73%29.99 "Hg9 mi
7:00 PM63 °FMostly cloudy.10 mph77%29.98 "Hg9 mi
6:04 PM63 °FCloudy.12 mph77%29.98 "Hg9 mi
6:00 PM63 °FMostly cloudy.13 mph77%29.98 "Hg9 mi
5:00 PM64 °FCloudy.12 mph73%29.98 "Hg9 mi
4:00 PM64 °FMore clouds than sun.13 mph68%29.98 "Hg9 mi
Weather by CustomWeather, © 2016

See weather overviewHow to use our weather pages